Follow iAlert.com on twitter @ialertcom
Search For Active Alerts in Your Area  
  Hi Guest:  [ Sign-up / Services ] [ Login ]

Current weather by "City, St" or "zip code"  
 

Advertise Here

Current Conditions: Philadelphia, Northeast Philadelphia Airport, PA

A Few Clouds


75.0 F

Last Updated on Jul 21 2018, 8:54 am EDT
Humidity: 60%
Wind Speed: E 12.7 mph
Barometer 30.06 in
Dewpoint: 60.1 F
Visibility: 10.00 mi
Precip: --
Heat Index: NA
Wind Chill: NA
Current conditions at:

Philadelphia, Northeast Philadelphia Airport, PA (KPNE)

Lat: 40.07 Lon: 75.013

Local Radar Image active severe weather and emergency alerts image image weather storm and storm spotter reports image weather observation monitoring service image
Local
Radar
Active
Alerts
Storm Reports Obs
Monitoring

iAlert Weather and Emergency Alert Notification Services:


ialert severe weather and emergency alerts by text message and email ialert daily weather forecast by email and text message service ialert real-time weather-observation monitoring and alert notification service ialert storm report monitoring alert notification

Observation History for Philadelphia, Northeast Philadelphia Airport, PA


Time Wind
(mph)
Vis
(mi)
Weather Precip (in) Temperature (F) Relative
Humidity
Wind
Chill
(°F)
Heat
Index
(°F)
Pressure
Air Dwpt altimeter
(in)
sea level
(mb)
8:54 am EDT E 12.7 10.00 A Few Clouds -- 75.0 60.1 60% NA NA 30.06 1017.8
7:54 am EDT E 10.4 10.00 Fair -- 73.0 60.1 64% NA NA 30.07 1017.9
6:54 am EDT E 8.1 10.00 Fair -- 69.0 60.1 73% NA NA 30.06 1017.8
5:54 am EDT NE 6.9 10.00 Fair -- 64.0 59.0 84% NA NA 30.07 1018.0
4:54 am EDT NE 5.8 10.00 Fair -- 64.0 59.0 84% NA NA 30.07 1018.2
3:54 am EDT NE 4.6 10.00 Mostly Cloudy -- 65.0 59.0 81% NA NA 30.08 1018.6
2:54 am EDT E 3.5 10.00 Fair -- 67.0 59.0 76% NA NA 30.09 1018.7
1:54 am EDT E 3.5 10.00 Fair -- 68.0 60.1 76% NA NA 30.10 1019.0
12:54 am EDT SE 3.5 10.00 Fair -- 69.0 60.1 73% NA NA 30.11 1019.4
11:54 pm EDT N 0.0 10.00 Fair -- 70.0 60.1 71% NA NA 30.11 1019.5
10:54 pm EDT SE 3.5 10.00 Fair -- 72.0 60.1 66% NA NA 30.13 1020.1
9:54 pm EDT SE 8.1 10.00 Fair -- 73.0 59.0 62% NA NA 30.13 1020.1
8:54 pm EDT SE 8.1 10.00 Fair -- 76.0 59.0 56% NA NA 30.11 1019.5
7:54 pm EDT SE 8.1 10.00 Fair -- 79.0 57.0 47% NA NA 30.11 1019.3
6:54 pm EDT SE 11.5 10.00 Fair -- 81.0 55.0 41% NA 81 30.09 1018.9
5:54 pm EDT SE 12.7 10.00 Fair -- 83.0 54.0 37% NA 82 30.10 1019.0
4:54 pm EDT E 13.8 G 18.4 10.00 Fair -- 86.0 55.0 35% NA 84 30.10 1019.2
3:54 pm EDT SE 12.7 G 16.1 10.00 Partly Cloudy -- 87.0 57.9 37% NA 86 30.11 1019.6
2:54 pm EDT 5.8 10.00 Partly Cloudy -- 85.0 57.9 40% NA 84 30.13 1020.1
1:54 pm EDT 5.8 10.00 Fair -- 85.0 57.9 40% NA 84 30.14 1020.5
12:54 pm EDT SE 5.8 10.00 A Few Clouds -- 83.0 57.0 41% NA 83 30.16 1021.2
11:54 am EDT 6.9 10.00 Fair -- 82.0 57.9 44% NA 82 30.17 1021.5
10:54 am EDT E 9.2 10.00 Fair -- 82.0 62.1 51% NA 83 30.18 1021.7
9:54 am EDT SE 5.8 10.00 Fair -- 79.0 64.0 60% NA NA 30.18 1021.7

Regional Weather Observation


Doylestown, Doylestown Airport, PA (KDYL)

Fair
69.0 F

Quakertown Airport, PA (KUKT)

Fair
79.0 F

Pottstown, Pottstown Limerick Airport, PA (KPTW)

Fair
69.0 F

Allentown Queen City Municipal Airport, PA (KXLL)

Fair
70.0 F

Allentown, Lehigh Valley International Airport, PA (KABE)

A Few Clouds
73.0 F

Trenton, Mercer County Airport, NJ (KTTN)

Fair
71.0 F

Advertise Here